Location: Bottom School (historical)
(37.9078°N, 89.3593°W)
Time: 19:53:29
(UTC+00:00)

SL-4 R/B - Pass Details

Date: 08 July 2022
Orbit: 425 x 653 km, 51.6° (Epoch: 16 August)

Event Time Altitude Azimuth Distance (km) Brightness Sun altitude
Rises 09:18:40 0° 317° (NW) 2,547 5.4 -14.1°
Reaches altitude 10° 09:21:09 10° 333° (NNW) 1,707 4.7 -13.7°
Maximum altitude 09:24:12 22° 26° (NNE) 1,184 4.6 -13.3°
Drops below altitude 10° 09:27:26 10° 78° (ENE) 1,815 5.6 -12.8°
Sets 09:30:09 0° 93° (E) 2,757 6.3 -12.4°
